This is the latest recevied weather packets stored in our database for station/object KO4DYK. If no packets are shown the sender has not sent any weather packets the latest 10 day(s).
| Time | Temp. | Humidity | Pressure | Rain* | Wind** | Luminosity | Snow |
|---|---|---|---|---|---|---|---|
| 1778198546 | 17.78° C | 69% | 1019.7 hPa | 0 mm | - | 39 W/m² | - |
| 1778198242 | 17.78° C | 65% | 1019.6 hPa | 0 mm | - | 39 W/m² | - |
| 1778197940 | 17.78° C | 63% | 1019.8 hPa | 0 mm | - | 30 W/m² | - |
| 1778197637 | 17.78° C | 60% | 1019.7 hPa | 0 mm | - | 34 W/m² | - |
| 1778197333 | 17.78° C | 59% | 1019.7 hPa | 0 mm | - | 33 W/m² | - |
| 1778197030 | 17.78° C | 59% | 1019.8 hPa | 0 mm | - | 30 W/m² | - |
| 1778196728 | 17.78° C | 60% | 1019.6 hPa | 0 mm | - | 35 W/m² | - |
| 1778196425 | 18.33° C | 60% | 1019.6 hPa | 0 mm | - | 38 W/m² | - |
| 1778196122 | 18.33° C | 59% | 1019.6 hPa | 0 mm | - | 40 W/m² | - |
| 1778195818 | 18.33° C | 57% | 1019.5 hPa | 0 mm | - | 41 W/m² | - |
| 1778195515 | 18.33° C | 56% | 1019.8 hPa | 0 mm | - | 41 W/m² | - |
| 1778195212 | 18.33° C | 55% | 1019.8 hPa | 0 mm | - | 40 W/m² | - |
| 1778194909 | 18.33° C | 55% | 1019.7 hPa | 0 mm | - | 41 W/m² | - |
| 1778194609 | 18.33° C | 55% | 1019.7 hPa | 0 mm | - | 42 W/m² | - |
| 1778194306 | 18.33° C | 54% | 1019.7 hPa | 0 mm | - | 51 W/m² | - |
| 1778194001 | 18.89° C | 54% | 1019.6 hPa | 0 mm | - | 44 W/m² | - |
| 1778193698 | 18.89° C | 52% | 1019.6 hPa | 0 mm | - | 45 W/m² | - |
| 1778193394 | 18.89° C | 53% | 1019.6 hPa | 0 mm | - | 45 W/m² | - |
| 1778193091 | 18.89° C | 55% | 1019.5 hPa | 0 mm | - | 46 W/m² | - |
| 1778192788 | 18.89° C | 53% | 1019.8 hPa | 0 mm | - | 49 W/m² | - |
| 1778192484 | 18.89° C | 52% | 1019.7 hPa | 0 mm | - | 106 W/m² | - |
| 1778192181 | 18.89° C | 53% | 1019.7 hPa | 0 mm | - | 50 W/m² | - |
| 1778191877 | 20° C | 55% | 1019.7 hPa | 0 mm | - | 54 W/m² | - |
| 1778191575 | 20° C | 51% | 1019.6 hPa | 0 mm | - | 376 W/m² | - |
| 1778191272 | 19.44° C | 50% | 1019.6 hPa | 0 mm | - | 395 W/m² | - |
* Rain latest hour (hover to see other rain measurements)
** Current wind speed in m/s (hover to see current wind gust speed)